Tracking 19242 objects as of 15-Aug-2018
HD Live streaming from Space Station
objects crossing your sky now

FENGYUN 1C DEB

Track FENGYUN 1C DEB now!
10-day predictions


NORAD ID: 31679
Int'l Code: 1999-025CCM
Perigee: 701.3 km
Apogee: 808.6 km
Inclination: 99.0 °
Period: 99.8 minutes
Semi major axis: 7125 km
RCS: 0.0078 m2 (small)
Launch date: May 10, 1999
Source: People's Republic of China (PRC)
Launch site: Taiyaun Space Center, China (TSC)

Note: This is SATELLITE DEBRIS
aabbcc
Your satellite tracking list
Your tracking list is empty




NASA's NSSDC Master Catalog

Two Line Element Set (TLE):
1 31679U 99025CCM 18227.28783941  .00000907  00000-0  27516-3 0  9993
2 31679  98.9771  52.5515 0075253 167.0980 193.2157 14.43241919588271
Source of the keplerian elements: AFSPC